カタログに戻る

STARLINK-36587

運用中通信SSO
NORAD 67532·PAYLOAD·🇺🇸 United States

打ち上げ Jan 22, 2026 から Vandenberg Space Force Base

Loading…

次のパス (今後24時間)

TLE

最新Source: CelesTrak SupGP

元期: Sep 14, 2026, 21:23 UTC

1 67532C 26014A   26257.89145833 -.00023123  00000+0 -71801-3 0  2578
2 67532  97.2848 143.3726 0001813  89.4188 180.0619 15.33440834    11

AllMySatでSTARLINK-36587をリアルタイム追跡

Download on the App Store